Weather reports worldwide

Advertisment
Montpellier, France (7643): temperature & dewpoint: 08.07.2020 11:00:00 - 14.07.2020 11:00:00 (CEST)Montpellier, France (7643): temperature 5cm: 08.07.2020 11:00:00 - 14.07.2020 11:00:00 (CEST)Montpellier, France (7643): temperature -20cm & temperature -100cm: 08.07.2020 11:00:00 - 14.07.2020 11:00:00 (CEST)Montpellier, France (7643): wind speed & gusts: 08.07.2020 11:00:00 - 14.07.2020 11:00:00 (CEST)Montpellier, France (7643): wind direction: 08.07.2020 11:00:00 - 14.07.2020 11:00:00 (CEST)Montpellier, France (7643): reduced air pressure: 08.07.2020 11:00:00 - 14.07.2020 11:00:00 (CEST)Montpellier, France (7643): visibility: 08.07.2020 11:00:00 - 14.07.2020 11:00:00 (CEST)Montpellier, France (7643): sunshine duration: 08.07.2020 11:00:00 - 14.07.2020 11:00:00 (CEST)Montpellier, France (7643): precipitation: 08.07.2020 11:00:00 - 14.07.2020 11:00:00 (CEST)
Date & Time tt [°C] td [°C] tt 5cm [°C] tt -20cm [°C] tt -100cm [°C] ff [km/h] ff [kn] fx [km/h] fx [kn] dd ppp [hPa] vv [km] sd [min] rr [mm]
14.07.2020 11:00:00 29,5 6,8 33,9 26,2 23,5 22 12 39 21 N 1015,4 60 60 0,0
14.07.2020 10:00:00 28,2 7,4 30,6 26,0 23,5 18 10 33 18 NW 1015,9 60 60 0,0
14.07.2020 09:00:00 25,9 8,4 25,5 26,0 23,5 19 10 27 15 WNW 1016,0 20 60 0,0
14.07.2020 08:00:00 24,2 9,0 17,9 26,1 23,5 14 7 19 10 WNW 1015,9 20 60 0,0
14.07.2020 07:00:00 21,2 9,4 15,1 26,3 23,5 5 3 9 5 NW 1015,9 52 20 0,0
14.07.2020 06:00:00 22,1 8,9 15,8 26,5 23,5 8 4 13 7 WNW 1015,9 60 0 0,0
14.07.2020 05:00:00 22,5 9,3 16,3 26,8 23,5 9 5 15 8 W 1015,9 60 0 0,0
14.07.2020 04:00:00 23,4 9,0 16,0 27,0 23,5 12 6 16 9 WNW 1015,9 60 0 0,0
14.07.2020 03:00:00 23,3 9,3 15,4 27,3 23,5 9 5 13 7 NW 1016,0 60 0 0,0
14.07.2020 02:00:00 24,0 11,0 16,3 27,6 23,5 8 5 14 8 WNW 1016,3 60 0 0,0
14.07.2020 01:00:00 24,9 11,8 18,7 27,7 23,5 11 6 16 9 N 1016,2 60 0 0,0
14.07.2020 00:00:00 24,0 15,8 20,1 28,0 23,5 6 3 11 6 NNE 1016,2 57 0 0,0
13.07.2020 23:00:00 24,5 15,7 19,6 28,2 23,5 6 4 13 7 N 1016,0 19 0 0,0
13.07.2020 22:00:00 24,1 17,3 20,4 28,4 23,4 9 5 14 8 NNE 1015,1 20 0 0,0
13.07.2020 21:00:00 26,0 17,1 24,1 28,6 23,5 11 6 21 11 NNE 1014,5 60 44 0,0
13.07.2020 20:00:00 27,9 19,7 27,3 28,7 23,4 8 4 30 16 NE 1013,8 18 60 0,0
13.07.2020 19:00:00 26,4 18,5 28,6 28,7 23,5 25 14 37 20 SSE 1014,2 20 60 0,0
13.07.2020 18:00:00 27,5 16,5 32,0 28,6 23,4 23 13 36 19 S 1014,8 47 60 0,0
13.07.2020 17:00:00 28,7 15,2 34,7 28,4 23,5 20 11 32 18 S 1015,7 20 60 0,0
13.07.2020 16:00:00 30,8 13,6 35,7 28,1 23,5 19 10 35 19 S 1016,2 20 60 0,0
13.07.2020 15:00:00 30,5 13,7 35,8 27,6 23,4 23 12 35 19 SSW 1016,9 20 60 0,0
13.07.2020 14:00:00 29,3 15,1 36,4 27,2 23,4 22 12 32 17 SSW 1017,6 60 60 0,0
13.07.2020 13:00:00 28,7 11,3 36,9 26,8 23,4 18 10 27 14 S 1018,1 19 60 0,0
13.07.2020 12:00:00 28,7 12,6 37,3 26,4 23,4 14 8 25 14 SSE 1018,4 20 60 0,0
13.07.2020 11:00:00 29,5 10,6 34,8 26,1 23,4 11 6 21 12 E 1018,6 19 60 0,0
13.07.2020 10:00:00 28,0 11,1 27,1 25,9 23,4 14 7 21 11 N 1018,8 20 40 0,0
13.07.2020 09:00:00 25,5 10,5 24,7 26,0 23,4 8 4 14 8 NE 1019,0 20 47 0,0
13.07.2020 08:00:00 22,5 11,9 17,4 26,0 23,4 7 4 15 8 N 1018,8 20 14 0,0
13.07.2020 07:00:00 20,4 11,1 15,8 26,3 23,4 9 5 14 8 N 1018,6 49 9 0,0
13.07.2020 06:00:00 20,9 11,2 16,4 26,4 23,4 9 5 12 7 NNW 1018,4 20 0 0,0
13.07.2020 05:00:00 20,3 12,5 17,4 26,6 23,4 9 5 11 6 N 1018,2 60 0 0,0
13.07.2020 04:00:00 20,0 13,7 17,3 26,8 23,4 11 6 13 7 N 1018,2 60 0 0,0
13.07.2020 03:00:00 20,8 14,9 18,0 27,0 23,4 7 4 13 7 N 1018,4 60 0 0,0
13.07.2020 02:00:00 20,9 16,5 18,0 27,2 23,4 9 5 12 7 N 1018,5 60 0 0,0
13.07.2020 01:00:00 20,7 17,5 17,1 27,4 23,4 6 4 11 6 NNE 1018,6 60 0 0,0
13.07.2020 00:00:00 20,7 17,5 17,5 27,7 23,4 8 4 11 6 ESE 1018,5 60 0 0,0
12.07.2020 23:00:00 21,4 17,6 17,0 27,9 23,3 5 3 17 9 ENE 1018,4 60 0 0,0
12.07.2020 22:00:00 22,2 16,7 18,1 28,1 23,4 4 2 12 7 SSW 1017,8 60 0 0,0
12.07.2020 21:00:00 23,2 17,0 21,5 28,3 23,4 9 5 19 10 S 1017,1 20 0 0,0
12.07.2020 20:00:00 24,5 17,0 25,0 28,4 23,4 10 6 30 16 SE 1016,1 60 29 0,0
12.07.2020 19:00:00 27,3 12,1 29,2 28,5 23,4 22 12 35 19 SSW 1017,0 60 60 0,0
12.07.2020 18:00:00 28,0 11,9 29,8 28,5 23,4 19 10 32 18 SSW 1017,9 20 43 0,0
12.07.2020 17:00:00 28,5 11,5 30,4 28,3 23,4 18 10 29 15 S 1017,8 60 43 0,0
12.07.2020 16:00:00 29,4 11,0 35,0 28,0 23,3 17 9 29 16 S 1018,0 19 60 0,0
12.07.2020 15:00:00 29,8 9,3 33,3 27,6 23,3 19 10 30 16 SSW 1018,6 19 53 0,0
12.07.2020 14:00:00 29,7 11,7 37,2 27,1 23,3 18 10 28 15 SSW 1018,6 19 60 0,0
12.07.2020 13:00:00 29,3 9,4 39,4 26,6 23,3 9 5 19 10 S 1018,8 20 60 0,0
12.07.2020 12:00:00 28,6 9,3 32,4 26,1 23,4 6 3 35 19 N 1018,4 60 60 0,0
12.07.2020 11:00:00 27,3 8,7 29,9 25,8 23,3 21 11 39 21 N 1018,4 20 60 0,0
12.07.2020 10:00:00 25,5 6,6 28,1 25,7 23,3 29 16 43 23 NNE 1018,6 53 60 0,0
12.07.2020 09:00:00 24,8 7,0 26,5 25,7 23,3 26 14 41 22 N 1018,4 60 60 0,0
12.07.2020 08:00:00 23,3 5,7 17,9 25,8 23,3 8 4 14 8 N 1018,1 20 60 0,0
12.07.2020 07:00:00 20,8 6,7 14,3 26,0 23,3 11 6 26 14 N 1017,9 13 22 0,0
12.07.2020 06:00:00 21,0 5,7 13,7 26,3 23,3 11 6 18 10 NW 1017,5 60 0 0,0
12.07.2020 05:00:00 21,4 6,1 11,8 26,6 23,3 9 5 16 9 NW 1017,2 60 0 0,0
12.07.2020 04:00:00 21,5 6,6 13,5 26,9 23,3 10 6 13 7 NW 1017,5 60 0 0,0
12.07.2020 03:00:00 21,8 6,1 15,5 27,2 23,3 11 6 20 11 NW 1017,5 60 0 0,0
12.07.2020 02:00:00 21,4 6,1 16,3 27,5 23,3 13 7 27 14 N 1017,5 60 0 0,0
12.07.2020 01:00:00 23,5 5,8 20,9 27,9 23,3 18 10 35 19 N 1017,6 60 0 0,0
12.07.2020 00:00:00 24,7 6,4 22,1 28,1 23,3 24 13 40 21 N 1017,8 60 0 0,0
11.07.2020 23:00:00 24,9 7,1 22,6 28,4 23,3 24 13 38 20 N 1017,5 60 0 0,0
11.07.2020 22:00:00 25,8 7,8 23,0 28,8 23,3 21 11 35 19 N 1017,0 60 1 0,0
11.07.2020 21:00:00 28,0 8,3 24,9 29,0 23,3 15 8 39 21 NE 1016,4 55 60 0,0
11.07.2020 20:00:00 30,3 8,1 29,2 29,2 23,3 24 13 38 20 NNE 1015,6 60 60 0,0
11.07.2020 19:00:00 31,3 9,5 32,4 29,2 23,3 15 8 35 19 NE 1015,5 60 60 0,0
11.07.2020 18:00:00 31,3 13,6 35,4 29,1 23,3 10 6 36 19 S 1015,6 20 60 0,0
11.07.2020 17:00:00 32,6 11,2 35,7 28,8 23,2 20 11 41 22 NE 1015,7 20 60 0,0
11.07.2020 16:00:00 31,7 12,0 36,0 28,4 23,2 25 14 42 23 NNE 1015,9 20 60 0,0
11.07.2020 15:00:00 31,1 12,5 36,8 28,0 23,3 4 2 36 20 SW 1016,5 20 60 0,0
11.07.2020 14:00:00 30,8 11,2 36,2 27,5 23,2 18 10 38 20 NE 1017,0 19 58 0,0
11.07.2020 13:00:00 29,9 12,8 35,2 27,0 23,2 20 11 36 19 N 1017,3 20 54 0,0
11.07.2020 12:00:00 29,4 14,0 37,9 26,5 23,2 20 11 36 20 NNW 1017,3 19 60 0,0
11.07.2020 11:00:00 28,4 14,2 33,2 26,3 23,2 19 10 34 19 NNE 1017,5 20 60 0,0
11.07.2020 10:00:00 26,7 15,1 30,0 26,1 23,2 15 8 28 15 N 1017,7 19 60 0,0
11.07.2020 09:00:00 25,4 16,0 25,9 26,1 23,2 17 9 26 14 N 1017,6 59 60 0,0
11.07.2020 08:00:00 23,6 15,6 20,6 26,2 23,2 11 6 19 10 N 1017,4 60 38 0,0
11.07.2020 07:00:00 21,9 16,6 17,3 26,4 23,2 9 5 14 7 NNW 1017,1 59 22 0,0
11.07.2020 06:00:00 21,9 16,2 17,3 26,5 23,2 6 3 13 7 N 1016,6 60 0 0,0
11.07.2020 05:00:00 23,6 15,9 18,7 26,8 23,2 6 3 14 8 NW 1016,4 60 0 0,0
11.07.2020 04:00:00 23,9 16,7 18,3 26,9 23,2 9 5 18 10 NW 1016,3 60 0 0,0
11.07.2020 03:00:00 23,6 16,9 19,3 27,2 23,2 8 5 14 8 NNW 1016,2 60 0 0,0
11.07.2020 02:00:00 23,3 16,6 20,5 27,4 23,2 6 3 20 11 NNW 1016,0 60 0 0,0
11.07.2020 01:00:00 24,1 16,6 22,3 27,6 23,2 12 6 31 17 N 1015,7 60 0 0,0
11.07.2020 00:00:00 25,4 17,3 24,1 27,7 23,2 19 10 32 17 N 1015,2 60 0 0,0
10.07.2020 23:00:00 27,4 17,3 25,7 27,9 23,2 20 11 45 24 N 1014,5 59 0 0,0
10.07.2020 22:00:00 29,9 15,6 25,3 28,0 23,2 32 17 53 28 WNW 1013,7 60 1 0,0
10.07.2020 21:00:00 25,3 20,8 25,3 28,2 23,2 17 9 36 19 SW 1013,4 20 23 0,0
10.07.2020 20:00:00 28,2 19,7 27,2 28,3 23,2 23 12 47 25 SW 1013,5 47 0 0,0
10.07.2020 19:00:00 26,3 20,4 26,4 28,3 23,2 33 18 51 28 SW 1013,6 20 38 0,0
10.07.2020 18:00:00 26,3 20,2 30,5 28,2 23,2 24 13 39 21 SSW 1013,4 20 56 0,0
10.07.2020 17:00:00 28,8 18,9 32,3 28,1 23,2 16 9 29 16 S 1013,7 49 54 0,0
10.07.2020 16:00:00 28,3 18,7 31,8 27,7 23,2 18 10 28 15 S 1014,1 20 53 0,0
10.07.2020 15:00:00 28,5 19,7 35,2 27,3 23,2 16 9 27 15 S 1014,4 19 58 0,0
10.07.2020 14:00:00 27,8 19,3 35,5 26,9 23,2 15 8 22 12 S 1014,6 20 51 0,0
10.07.2020 13:00:00 27,2 19,3 33,0 26,5 23,2 9 5 17 9 SE 1015,2 28 37 0,0
10.07.2020 12:00:00 27,0 19,4 30,5 26,2 23,2 7 4 18 10 S 1016,1 20 34 0,0
10.07.2020 11:00:00 24,5 20,6 31,2 25,9 23,1 9 5 16 9 ESE 1016,1 15 55 0,0
10.07.2020 10:00:00 24,3 20,4 24,9 25,8 23,1 6 4 16 8 NE 1016,3 15 41 0,0
10.07.2020 09:00:00 21,3 19,8 21,6 25,8 23,1 6 3 16 8 NNE 1016,0 11 0 0,0
10.07.2020 08:00:00 20,8 19,8 20,7 25,9 23,2 6 4 14 8 N 1015,9 11 0 0,0
10.07.2020 07:00:00 20,7 19,9 19,7 26,0 23,2 10 5 15 8 N 1015,6 11 0 0,0
10.07.2020 06:00:00 20,5 19,5 18,8 26,1 23,1 5 3 16 9 NNE 1015,5 15 0 0,0
10.07.2020 05:00:00 19,7 18,9 18,0 26,2 23,1 9 5 12 6 NNE 1015,6 15 0 0,0
10.07.2020 04:00:00 19,5 18,5 17,2 26,4 23,1 6 4 12 6 NNE 1015,6 16 0 0,0
10.07.2020 03:00:00 20,8 19,1 18,1 26,6 23,1 8 5 18 10 SE 1015,4 19 0 0,0
10.07.2020 02:00:00 21,6 20,4 17,4 26,8 23,1 10 6 16 9 SE 1015,2 18 0 0,0
10.07.2020 01:00:00 22,2 19,6 17,5 27,0 23,1 7 4 16 9 SSW 1015,5 37 0 0,0
10.07.2020 00:00:00 22,8 19,0 19,1 27,2 23,1 13 7 18 10 SW 1016,0 20 0 0,0
09.07.2020 23:00:00 22,3 19,3 20,3 27,4 23,1 8 4 18 10 SSW 1016,0 38 0 0,0
09.07.2020 22:00:00 24,2 17,0 22,4 27,6 23,2 12 6 33 18 SW 1015,8 20 1 0,0
09.07.2020 21:00:00 23,5 19,4 23,0 27,8 23,1 21 11 31 17 SW 1015,4 47 60 0,0
09.07.2020 20:00:00 25,2 20,2 25,4 27,8 23,1 21 12 32 17 SW 1015,2 49 60 0,0
09.07.2020 19:00:00 26,1 17,7 28,7 27,9 23,1 23 13 35 19 SW 1015,2 35 60 0,0
09.07.2020 18:00:00 28,2 12,9 31,1 27,7 23,1 27 15 39 21 SSW 1015,5 32 60 0,0
09.07.2020 17:00:00 28,6 13,3 33,5 27,5 23,1 18 10 29 16 SSW 1015,8 20 60 0,0
09.07.2020 16:00:00 29,3 10,9 34,5 27,3 23,1 18 10 36 19 SSW 1016,3 20 60 0,0
09.07.2020 15:00:00 30,1 12,5 34,7 26,8 23,1 19 10 29 15 SSW 1016,7 39 60 0,0
09.07.2020 14:00:00 28,6 14,1 35,3 26,4 23,1 16 9 26 14 SSW 1017,1 20 60 0,0
09.07.2020 13:00:00 27,8 13,3 35,1 25,9 23,1 13 7 22 12 SSW 1017,4 50 60 0,0
09.07.2020 12:00:00 25,6 17,5 34,2 25,5 23,1 13 7 20 11 SSW 1017,6 51 60 0,0
09.07.2020 11:00:00 24,0 18,0 32,2 25,2 23,1 9 5 16 9 S 1018,0 20 60 0,0
09.07.2020 10:00:00 23,1 18,2 29,9 25,0 23,1 8 4 12 6 SE 1017,7 44 60 0,0
09.07.2020 09:00:00 22,1 16,1 24,2 24,9 23,1 6 4 13 7 SSE 1017,9 60 60 0,0
09.07.2020 08:00:00 20,6 12,6 17,1 25,1 23,1 8 4 16 9 NNE 1016,9 20 60 0,0
09.07.2020 07:00:00 17,6 12,5 12,8 25,3 23,1 6 3 22 12 NNE 1016,4 20 24 0,0
09.07.2020 06:00:00 16,0 11,6 12,2 25,5 23,1 6 3 13 7 NNE 1016,1 60 0 0,0
09.07.2020 05:00:00 16,6 11,5 12,0 25,7 23,0 10 6 13 7 NNE 1016,3 60 0 0,0
09.07.2020 04:00:00 17,5 12,0 12,3 26,0 23,0 8 5 10 5 NNE 1016,5 18 0 0,0
09.07.2020 03:00:00 16,6 11,9 12,7 26,3 23,1 8 5 11 6 NE 1017,0 58 0 0,0
09.07.2020 02:00:00 19,1 11,4 12,8 26,5 23,0 2 1 6 3 ENE 1016,7 60 0 0,0
09.07.2020 01:00:00 19,3 11,6 13,6 26,8 23,1 5 3 9 5 NNE 1016,7 60 0 0,0
09.07.2020 00:00:00 22,1 12,1 15,7 27,0 23,0 7 4 11 6 SW 1016,8 60 0 0,0
08.07.2020 23:00:00 23,0 11,1 17,4 27,3 23,0 8 4 27 14 W 1016,7 19 0 0,0
08.07.2020 22:00:00 24,0 14,1 22,0 27,5 23,0 17 9 27 14 SW 1016,2 60 2 0,0
08.07.2020 21:00:00 24,6 12,2 23,2 27,7 23,0 16 9 32 17 SW 1015,4 50 60 0,0
08.07.2020 20:00:00 25,7 13,9 25,5 27,8 23,0 24 13 34 18 SW 1015,3 49 60 0,0
08.07.2020 19:00:00 26,8 12,1 29,8 27,9 23,0 18 10 27 14 SW 1015,3 20 60 0,0
08.07.2020 18:00:00 27,3 11,7 31,1 27,8 23,0 21 11 36 19 SSW 1015,8 10 60 0,0
08.07.2020 17:00:00 28,3 10,5 33,1 27,6 23,0 23 12 36 19 SSW 1016,3 29 60 0,0
08.07.2020 16:00:00 28,7 9,9 34,0 27,3 23,0 22 12 37 20 SSW 1016,3 20 60 0,0
08.07.2020 15:00:00 29,3 8,9 34,2 26,9 23,0 24 13 34 18 SSW 1016,6 20 60 0,0
08.07.2020 14:00:00 28,9 9,1 35,5 26,5 23,0 23 13 31 17 SW 1017,0 20 60 0,0
08.07.2020 13:00:00 28,3 9,1 35,9 26,0 23,0 19 10 28 15 SSW 1017,0 20 60 0,0
08.07.2020 12:00:00 29,5 7,4 35,0 25,6 23,0 10 6 26 14 NE 1017,1 19 60 0,0
08.07.2020 11:00:00 28,1 8,4 31,7 25,2 23,0 14 8 33 18 NNE 1017,0 19 60 0,0

tt = temperature
td = dewpoint
tt 5cm = temperature 5cm
tt -20cm = temperature -20cm
tt -100cm = temperature -100cm
ff = wind speed
fx = gusts
dd = wind direction
ppp = reduced air pressure
vv = visibility
sd = sunshine duration
rr = precipitation

Next stations